Home > Weather > Thalwil > Past weeks

Flag for Switzerland Weather for the Past 2 Weeks in Thalwil, Zurich, Switzerland

Now
33 °F

Chilly.


Feels Like: 33 °F
Forecast: 34 / 44 °F
Wind: 2 mph from South

Location: Zuerich-Fluntern

Current Time: Feb 12, 2016 at 9:42:39 AM

Latest Report: Feb 12, 2016 at 9:00 AM


Visibility: N/A

Pressure: 29.68 "Hg

Humidity: 92%

Dew point: 31 °F

Location of ThalwilLocation

Historic Weather in Thalwil — Graph

°F

Thalwil Temperature Yesterday

Maximum temperature yesterday: 42 °F (at 2:00 PM)
Minimum temperature yesterday: 32 °F (at 8:00 AM)
Average temperature yesterday: 36 °F

High & Low Weather Summary for the Past Weeks

 TemperatureHumidityPressure
High56 °F (Feb 1, 1:00 PM)97% (Jan 30, 5:00 AM)30.51 "Hg (Jan 30, 5:00 AM)
Low32 °F (Feb 10, 8:00 AM)44% (Feb 11, 3:00 PM)29.32 "Hg (Feb 9, 6:00 PM)
Average42 °F78%30.08 "Hg
* Reported Jan 28 8:00 AM — Feb 12 8:00 AM, Thalwil, Weather by CustomWeather, © 2016

Note: Actual official high and low records may vary slightly from our data, if they occured in-between our weather recording intervals... More about our weather records

Advertising

Thalwil Weather History for the Previous 24 Hours

 ConditionsComfort  
Time TempWeatherWind HumidityBarometerVisibility
8:00 AM
Fri, Feb 12
32 °FChilly.1 mph93%29.72 "HgN/A
7:00 AM33 °FChilly.2 mph89%29.74 "HgN/A
6:00 AM33 °FChilly.5 mph91%29.75 "HgN/A
5:00 AM33 °FChilly.3 mph89%29.76 "HgN/A
4:00 AM33 °FChilly.6 mph89%29.78 "HgN/A
9:00 PM
Thu, Feb 11
36 °FChilly.1 mph64%29.78 "HgN/A
8:00 PM36 °FChilly.2 mph61%29.78 "HgN/A
7:00 PM36 °FChilly.2 mph60%29.78 "HgN/A
6:00 PM37 °FChilly.1 mph58%29.77 "HgN/A
5:00 PM39 °FChilly.3 mph49%29.76 "HgN/A
4:00 PM40 °FChilly.6 mph45%29.77 "HgN/A
3:00 PM41 °FQuite cool.7 mph44%29.76 "HgN/A
2:00 PM42 °FQuite cool.8 mph48%29.77 "HgN/A
1:00 PM40 °FQuite cool.7 mph53%29.81 "HgN/A
12:00 PM40 °FChilly.8 mph55%29.83 "HgN/A
11:00 AM38 °FChilly.6 mph60%29.84 "HgN/A
10:00 AM36 °FChilly.5 mph67%29.85 "HgN/A
9:00 AM34 °FChilly.2 mph72%29.87 "HgN/A
Weather by CustomWeather, © 2016

See weather overviewHow to use our weather pages